EW5526 Weather Reports


Display with metric or nautical units.
time (UTC)temp
F
wind
direction
speed
MPH
gust
MPH
rain 1hr
in
rain 24hr
in
rain mn
in
humidity
%
barometer
mb
20260508230031 59 19 3.0 4.0 0.00 0.00 0.00 86 1016.5
20260508223031 59 28 3.0 6.0 0.00 0.00 0.00 86 1016.2
20260508210031 60 317 3.0 6.0 0.00 0.00 0.00 86 1015.9
20260508203029 61 310 4.0 7.0 0.00 0.00 0.00 85 1016.1
20260508200029 61 315 8.0 10.0 0.00 0.00 0.00 85 1015.9
20260508193030 61 327 5.0 10.0 0.00 0.00 0.00 86 1015.6
20260508190027 61 309 3.0 10.0 0.00 0.00 0.00 86 1015.2
20260508180026 63 336 10.0 10.0 0.00 0.00 0.00 80 1014.4
20260508173026 66 270 3.0 5.0 0.00 0.00 0.00 73 1014.0
20260508170025 68 229 2.0 5.0 0.00 0.00 0.00 69 1014.0
20260508153024 71 203 3.0 5.0 0.00 0.00 0.00 65 1013.8
20260508150023 71 189 3.0 8.0 0.00 0.00 0.00 63 1013.8
20260508143023 71 190 1.0 5.0 0.00 0.00 0.00 64 1013.7
20260508140022 74 211 5.0 9.0 0.00 0.00 0.00 60 1014.0
20260508130051 71 211 4.0 8.0 0.00 0.00 0.00 64 1013.8
20260508123021 73 237 4.0 6.0 0.00 0.00 0.00 60 1013.8
20260508120020 71 201 3.0 9.0 0.00 0.00 0.00 62 1013.9
20260508113050 72 284 3.0 5.0 0.00 0.00 0.00 62 1013.8
20260508110049 70 192 4.0 7.0 0.00 0.00 0.00 65 1013.7
20260508103019 69 231 2.0 6.0 0.00 0.00 0.00 66 1013.8
20260508100048 69 235 2.0 7.0 0.00 0.00 0.00 67 1013.8
20260508093047 67 196 0.0 4.0 0.00 0.00 0.00 68 1013.7
20260508083047 69 207 6.0 6.0 0.00 0.00 0.00 63 1013.5
20260508080046 69 221 1.0 3.0 0.00 0.00 0.00 61 1013.0
20260508073046 67 215 1.0 3.0 0.00 0.00 0.00 63 1012.8
20260508070045 66 216 2.0 4.0 0.00 0.00 0.00 61 1012.6
20260508063045 65 265 2.0 2.0 0.00 0.00 0.00 64 1012.6
20260508053044 62 267 0.0 0.0 0.00 0.00 0.00 68 1011.8
20260508050043 61 267 0.0 3.0 0.00 0.00 0.00 67 1011.5
20260508043042 61 258 3.0 3.0 0.00 0.00 0.00 61 1011.5
20260508040042 62 258 0.0 1.0 0.00 0.00 0.00 55 1011.2
20260508030041 62 258 0.0 0.0 0.00 0.00 0.00 52 1010.6
20260508020039 61 258 2.0 4.0 0.00 0.00 0.00 52 1010.4
20260508010039 61 254 0.0 3.0 0.00 0.00 0.00 59 1010.8
20260508003038 61 254 1.0 3.0 0.00 0.00 0.00 60 1010.6
20260508000037 61 254 1.0 3.0 0.00 0.00 0.00 64 1010.7
20260507233037 60 255 0.0 1.0 0.00 0.00 0.00 68 1010.9